TimeCST,TemperatureF,Dew PointF,Humidity,Sea Level PressureIn,VisibilityMPH,Wind Direction,Wind SpeedMPH,Gust SpeedMPH,PrecipitationIn,Events,Conditions,WindDirDegrees,DateUTC
12:15 AM,21.2,21.2,100,29.75,5.0,Calm,Calm,-,N/A,,Mostly Cloudy,0,2013-01-19 06:15:00
12:35 AM,21.2,19.4,93,29.76,5.0,Calm,Calm,-,N/A,,Scattered Clouds,0,2013-01-19 06:35:00
12:55 AM,21.2,19.4,93,29.75,5.0,Calm,Calm,-,N/A,,Clear,0,2013-01-19 06:55:00
1:15 AM,21.2,21.2,100,29.76,5.0,Calm,Calm,-,N/A,,Clear,0,2013-01-19 07:15:00
1:35 AM,21.2,21.2,100,29.75,5.0,Calm,Calm,-,N/A,,Scattered Clouds,0,2013-01-19 07:35:00
1:55 AM,19.4,19.4,100,29.74,5.0,NE,3.5,-,N/A,,Mostly Cloudy,40,2013-01-19 07:55:00
2:15 AM,19.4,17.6,93,29.75,5.0,South,3.5,-,N/A,,Mostly Cloudy,170,2013-01-19 08:15:00
2:35 AM,19.4,17.6,93,29.74,5.0,Calm,Calm,-,N/A,,Scattered Clouds,0,2013-01-19 08:35:00
2:55 AM,21.2,19.4,93,29.73,5.0,Calm,Calm,-,N/A,,Mostly Cloudy,0,2013-01-19 08:55:00
3:15 AM,21.2,19.4,93,29.72,5.0,Calm,Calm,-,N/A,,Mostly Cloudy,0,2013-01-19 09:15:00
3:35 AM,21.2,21.2,100,29.70,5.0,Calm,Calm,-,N/A,,Overcast,0,2013-01-19 09:35:00
3:55 AM,23.0,21.2,93,29.70,5.0,SE,4.6,-,N/A,,Overcast,140,2013-01-19 09:55:00
4:15 AM,24.8,23.0,93,29.69,5.0,SE,4.6,-,N/A,,Overcast,130,2013-01-19 10:15:00
4:35 AM,24.8,23.0,93,29.67,5.0,SSE,5.8,-,N/A,,Overcast,150,2013-01-19 10:35:00
4:55 AM,26.6,23.0,86,29.67,7.0,SSE,4.6,-,N/A,,Scattered Clouds,160,2013-01-19 10:55:00
5:15 AM,24.8,23.0,93,29.69,7.0,SSW,3.5,-,N/A,,Clear,210,2013-01-19 11:15:00
5:35 AM,23.0,23.0,100,29.68,5.0,South,4.6,-,N/A,,Clear,180,2013-01-19 11:35:00
5:55 AM,24.8,23.0,93,29.69,7.0,SSW,4.6,-,N/A,,Clear,210,2013-01-19 11:55:00
7:15 AM,26.6,24.8,93,29.64,7.0,SSW,3.5,-,N/A,,Clear,210,2013-01-19 13:15:00
7:55 AM,26.6,23.0,86,29.66,4.0,Calm,Calm,-,N/A,,Scattered Clouds,0,2013-01-19 13:55:00
8:15 AM,24.8,23.0,93,29.65,4.0,Calm,Calm,-,N/A,,Clear,0,2013-01-19 14:15:00
8:35 AM,26.6,24.8,93,29.65,3.0,Calm,Calm,-,N/A,,Clear,0,2013-01-19 14:35:00
9:35 AM,28.4,26.6,93,29.65,5.0,SW,5.8,-,N/A,,Mostly Cloudy,220,2013-01-19 15:35:00
9:55 AM,30.2,28.4,93,29.65,7.0,SW,9.2,-,N/A,,Overcast,230,2013-01-19 15:55:00
10:15 AM,30.2,28.4,93,29.65,10.0,SW,6.9,-,N/A,,Mostly Cloudy,220,2013-01-19 16:15:00
10:35 AM,32.0,28.4,87,29.64,10.0,WSW,9.2,-,N/A,,Scattered Clouds,250,2013-01-19 16:35:00
11:15 AM,32.0,28.4,87,29.65,10.0,West,18.4,-,N/A,,Overcast,280,2013-01-19 17:15:00
11:35 AM,32.0,28.4,87,29.64,10.0,WNW,19.6,27.6,N/A,,Mostly Cloudy,290,2013-01-19 17:35:00
11:55 AM,32.0,28.4,87,29.63,10.0,WNW,17.3,24.2,N/A,,Mostly Cloudy,290,2013-01-19 17:55:00
12:15 PM,32.0,28.4,87,29.63,10.0,West,18.4,-,N/A,,Overcast,280,2013-01-19 18:15:00
12:35 PM,32.0,28.4,87,29.64,10.0,WNW,18.4,28.8,N/A,,Overcast,300,2013-01-19 18:35:00
12:55 PM,32.0,26.6,80,29.64,10.0,WNW,18.4,27.6,N/A,,Overcast,290,2013-01-19 18:55:00
1:15 PM,32.0,26.6,80,29.63,10.0,West,19.6,26.5,N/A,,Overcast,280,2013-01-19 19:15:00
1:35 PM,32.0,26.6,80,29.63,10.0,West,17.3,25.3,N/A,,Overcast,280,2013-01-19 19:35:00
1:55 PM,32.0,26.6,80,29.63,10.0,West,16.1,24.2,N/A,,Overcast,270,2013-01-19 19:55:00
2:15 PM,32.0,28.4,87,29.62,5.0,West,18.4,25.3,N/A,Snow,Light Snow,270,2013-01-19 20:15:00
2:35 PM,32.0,28.4,87,29.61,5.0,West,17.3,-,N/A,Snow,Light Snow,260,2013-01-19 20:35:00
2:55 PM,32.0,26.6,80,29.61,5.0,West,28.8,40.3,N/A,,Haze,280,2013-01-19 20:55:00
3:15 PM,30.2,17.6,60,29.62,1.8,West,32.2,43.7,N/A,Snow,Light Snow,270,2013-01-19 21:15:00
3:35 PM,30.2,17.6,60,29.63,5.0,West,32.2,39.1,N/A,,Haze,270,2013-01-19 21:35:00
3:55 PM,26.6,14.0,59,29.65,4.0,WNW,35.7,41.4,N/A,,Haze,290,2013-01-19 21:55:00
4:15 PM,23.0,12.2,63,29.67,4.0,WNW,31.1,41.4,N/A,,Haze,290,2013-01-19 22:15:00
4:35 PM,21.2,12.2,68,29.70,3.0,WNW,34.5,46.0,N/A,Snow,Light Snow,290,2013-01-19 22:35:00
4:55 PM,17.6,6.8,63,29.73,1.8,WNW,23.0,46.0,N/A,Snow,Light Snow,300,2013-01-19 22:55:00
5:15 PM,14.0,5.0,67,29.76,1.5,WNW,34.5,44.9,N/A,Snow,Light Snow,290,2013-01-19 23:15:00
5:35 PM,12.2,3.2,67,29.79,7.0,WNW,28.8,42.6,N/A,,Overcast,290,2013-01-19 23:35:00
5:55 PM,10.4,1.4,67,29.82,4.0,WNW,31.1,42.6,N/A,,Haze,290,2013-01-19 23:55:00
6:15 PM,10.4,1.4,67,29.84,7.0,WNW,26.5,39.1,N/A,,Overcast,290,2013-01-20 00:15:00
6:35 PM,8.6,1.4,73,29.86,7.0,NW,25.3,32.2,N/A,,Overcast,310,2013-01-20 00:35:00
6:55 PM,8.6,1.4,73,29.87,5.0,WNW,25.3,34.5,N/A,,Haze,300,2013-01-20 00:55:00
7:15 PM,6.8,-4.0,61,29.89,10.0,NW,24.2,32.2,N/A,,Scattered Clouds,310,2013-01-20 01:15:00
7:35 PM,5.0,-5.8,61,29.91,10.0,NW,27.6,33.4,N/A,,Scattered Clouds,310,2013-01-20 01:35:00
7:55 PM,5.0,-5.8,61,29.93,10.0,NW,19.6,34.5,N/A,,Scattered Clouds,310,2013-01-20 01:55:00
8:15 PM,5.0,-5.8,61,29.94,10.0,WNW,21.9,28.8,N/A,,Mostly Cloudy,300,2013-01-20 02:15:00
8:35 PM,5.0,-5.8,61,29.96,7.0,NW,20.7,32.2,N/A,,Mostly Cloudy,310,2013-01-20 02:35:00
8:55 PM,5.0,-5.8,61,29.97,10.0,NW,21.9,33.4,N/A,,Overcast,320,2013-01-20 02:55:00
9:15 PM,5.0,-5.8,61,29.99,10.0,NW,19.6,27.6,N/A,,Overcast,310,2013-01-20 03:15:00
9:35 PM,3.2,-4.0,72,30.00,10.0,NW,19.6,27.6,N/A,,Mostly Cloudy,310,2013-01-20 03:35:00
9:55 PM,3.2,-4.0,72,30.01,10.0,NW,16.1,27.6,N/A,,Scattered Clouds,310,2013-01-20 03:55:00
10:15 PM,3.2,-4.0,72,30.03,10.0,NW,17.3,26.5,N/A,,Mostly Cloudy,310,2013-01-20 04:15:00
10:35 PM,3.2,-4.0,72,30.04,10.0,NW,16.1,25.3,N/A,,Mostly Cloudy,320,2013-01-20 04:35:00
10:55 PM,3.2,-4.0,72,30.05,10.0,NW,18.4,27.6,N/A,,Scattered Clouds,320,2013-01-20 04:55:00
11:15 PM,3.2,-5.8,66,30.06,10.0,NW,18.4,28.8,N/A,,Scattered Clouds,320,2013-01-20 05:15:00
11:35 PM,3.2,-5.8,66,30.07,10.0,NW,15.0,26.5,N/A,,Clear,320,2013-01-20 05:35:00
11:55 PM,3.2,-5.8,66,30.06,10.0,NW,17.3,25.3,N/A,,Clear,320,2013-01-20 05:55:00